Regional Weather Roundup
Issued by NWS

Home | Current Version | Previous Version | Text Only | Print | Product List | Glossary Off
Versions: 1 2 3 4 5 6 7 8 9 10 11 12 13 14 15 16 17 18 19 20 21 22 23 24 25 26 27 28

000
ASUS45 KSLC 230510
RWRUT

UTAH REGIONAL WEATHER ROUNDUP
NATIONAL WEATHER SERVICE SALT LAKE CITY UT
1100 PM MDT WED MAR 22 2017

UTZ001>011-023>025-230600-

NORTHERN UTAH

CITY           SKY/WX    TMP DP  RH WIND       PRES   REMARKS
BRIGHAM CITY     N/A     52  40  63 S3        29.76R
HILL AFB       LGT RAIN  49  41  72 E8        29.76S
LOGAN          CLOUDY    47  45  93 W6        29.78F
OGDEN          LGT RAIN  49  42  77 S12       29.74F
SALT LAKE CITY CLOUDY    51  43  74 N10       29.72F
WENDOVER       CLOUDY    46  30  53 NW22G39   29.80S
HEBER CITY     RAIN      45  37  76 S10G22    29.78R

$$

UTZ011>015-024>027-230600-

CENTRAL/NORTHEAST UTAH

CITY           SKY/WX    TMP DP  RH WIND       PRES   REMARKS
PROVO AIRPORT  CLOUDY    53  38  56 SE10      29.75S
MOAB/CANYONLAN CLOUDY    55  42  61 W16       29.78S
DELTA          CLOUDY    50  34  53 S9        29.74S
PRICE          LGT RAIN  44  43  96 E13       29.83F
ROOSEVELT      RAIN      46  41  81 CALM      29.86S
VERNAL         RAIN      48  41  76 W13       29.83S

$$

UTZ013>016-019>022-027-230600-

SOUTHERN UTAH

CITY           SKY/WX    TMP DP  RH WIND       PRES   REMARKS
BRYCE CANYON   LGT RAIN  36  33  89 W5        29.86F WCI  32
CEDAR CITY     LGT RAIN  39  36  89 E10       29.82F WCI  32
MILFORD        CLOUDY   N/A N/A N/A S9        29.79R
ST GEORGE      CLOUDY    53  42  66 SE14      29.83R
HANKSVILLE     CLOUDY    52  41  66 W7G20     29.77F
BLANDING       CLOUDY    57  28  33 SW5       29.89F

$$

REGIONAL REPORTS     COLORADO/ARIZONA

CITY           SKY/WX    TMP DP  RH WIND       PRES   REMARKS
CRAIG, CO      CLOUDY    42  31  64 CALM      29.85F
GRAND JUNCTION PTCLDY    57  28  33 E3        29.74F
RIFLE, CO      CLOUDY    50  35  56 SE7       29.80F
MONTROSE, CO   CLOUDY    51  27  39 SE8       29.82F
CORTEZ, CO     CLEAR     59  20  22 SW10      29.86F
COLORADO CITY  RAIN      45  41  87 E6        29.92R
PAGE, AZ       LGT RAIN  53  32  44 SW15G25   29.82R
GRAND CANYON   LGT SNOW  34  34 100 SW13G21   29.98R FOG     WCI  25
KINGMAN, AZ    CLOUDY    51  38  60 N8        29.88R
FLAGSTAFF, AZ  LGT SNOW  35  33  92 W7G20     29.96R FOG     WCI  29

$$

REGIONAL REPORTS    NEVADA/IDAHO/WYOMING

CITY           SKY/WX    TMP DP  RH WIND       PRES   REMARKS
LAS VEGAS, NV  MOCLDY    61  27  27 SW13G22   29.76R
ELY, NY        CLOUDY    40  30  67 NW6       29.83R
ELKO, NV       CLOUDY    34  32  92 CALM      29.91F
POCATELLO, ID  CLOUDY    44  39  82 W22       29.87R
BURLEY, ID     CLOUDY    44  34  67 S12       29.84F
EVANSTON, WY   CLOUDY    38  34  85 N9        29.82F FOG     WCI  31
ROCK SPRINGS,  LGT RAIN  41  37  86 NW10      29.86S
KEMMERER, WY   RAIN      36  34  93 CALM      29.86F

$$




USA.gov is the U.S. government's official web portal to all federal, state and local government web resources and services.